COSMOS 1579 COOLANT, 26519

Orbit data source: Space-Track

COSMOS 1579 COOLANT, 26519 is space debris in LEO originally from a launch on Fri, 29 Jun 1984 UTC launched from the Tyuratam Missile And Space Complex (TTMTR). Debris objects in space refer to the collection of defunct objects orbiting the Earth. Examples of debris include non-operational satellites, rocket bodies, and fragments generated from explosions, collisions, or faulty payload assembly.

Loading next visibility...
Identifier
26519, 1984-069L
Orbit
LEO
Country
Flag of CISCIS
Related business
Manufacturer
Unknown
Mission
Spacecraft
Bus & Motor
Unknown
Mass
Unknown
Launch date (UTC)
1984-06-29 (41 years ago)
Launch vehicle
Unknown
Launch site
Tyuratam Missile And Space Complex (TTMTR)
Object type
Payload
Rocket body
Debris
Shape & HBR
Unknown shape, 0.1 m
Radar Cross Section
Small (<0.1 m²)

Expand to show TLE details & history
Last TLE update: 3 days ago

TLE from 3 days ago
0 COSMOS 1579 COOLANT
1 26519U 84069L   25290.13468928  .00000209  00000-0  23812-3 0  9999
2 26519  65.0489 200.4325 0027599 100.4919 325.9154 13.90741278613572
Epoch: 2025-10-17T03:13Z
TLE epoch observation values (Epoch: 2025-10-17T03:13:57.153Z)
Latitude
56.19389°
Longitude
169.78596°
Altitude
917.749 km
Speed
7.407 km/s
True Right ascension
16h 16m 38s
True Declination
56° 02' 18"
Sunlit
Object was in daylight at epoch
Visualization orbit readout
Latitude
Unknown
Longitude
Unknown
Altitude
Unknown
Speed
Unknown
Apparent Right ascension
Unknown
Apparent Declination
Unknown
Sunlit
N/A
Visualization observer readout
Local Sidereal Time
12:25:23
Azimuth
Unknown
Elevation
Unknown
Doppler factor
Unknown
Orbital elements
Apogee altitude
944.788 km
Perigee altitude
904.479 km
Semi-major axis
7,302.771 km
Eccentricity
0.00276
Inclination
65.0489°
RAAN
200.4325°
Arg. of periapsis
100.4919°
True anomaly
325.73765°
Mean anomaly
325.9154°
Eccentric anomaly
325.82658°
Mean motion
3.47786 °/min
Orbital period
103.51 mins
BSTAR
0.00023812
Loading maneuver chart data...
Computing Atmospheric mass density...

Documentation

Showing up to 5 results
|